Starlink 2443

operational
NORAD ID: 48107 Int'l Des: 2021-027 Owner: SPXS Country: US Constellation: starlink
LEOCIRCULARSTARLINK_TYPE

Über Starlink 2443

Beschreibung wird geladen...

Live-Position

3D-Globus wird geladen...

Nächste Überflüge

Höhenverlauf

Altitude vs Time

uPlot chart will show altitude changes over time

Zweizeiliger Elementsatz

1 48107U 21027R 25299.25432167 .00001083 00000-0 91642-4 0 9997
2 48107 53.0548 35.1225 0001824 85.5303 274.5894 15.06395934252434
Epoch: 26. Okt. 2025 • Age: 8 hours

Aktueller Status

Höhe 552.1 km
Geschwindigkeit 7.59 km/s
Subsatellitenpunkt 51.17°N, 107.84°W
Startdatum 7. Apr. 2021
Alter 4.5 years
Typ internet

Technische Details

Klassifizierung Payload
Masse 260.00 kg
Trockenmasse 248.00 kg
Gesamtmasse 260.00 kg
Länge 0.20 m
Durchmesser 2.80 m
Spannweite 9.00 m
Form Box + pan
Hersteller SPXS
Bus-Typ Starlink
Phasenstatus In Orbit
Besitzer/Staat SPXS/US

Große Konstellationen

Loading constellations...